FW4092 Weather Reports


time (UTC)temp
C
wind
direction
speed
KPH
gust
KPH
rain 1hr
cm
rain 24hr
cm
rain mn
cm
humidity
%
barometer
mb
20260505152301 13 185 1.6 4.8 0.00 0.00 0.00 68 1010.7
20260505151522 13 192 0.0 4.8 0.00 0.00 0.00 68 1010.7
20260505151019 12 126 0.0 0.0 0.00 0.00 0.00 69 1010.7
20260505150521 12 125 0.0 0.0 0.00 0.00 0.00 71 1010.7
20260505140521 8 129 0.0 0.0 0.00 0.00 0.00 82 1010.2
20260505140232 8 129 0.0 0.0 0.00 0.00 0.00 83 1010.3
20260505124412 7 129 0.0 3.2 0.00 0.00 0.00 80 1009.3
20260505123908 7 129 0.0 0.0 0.00 0.00 0.00 78 1009.2
20260505123400 7 129 0.0 0.0 0.00 0.00 0.00 77 1009.3
20260505122855 8 129 1.6 4.8 0.00 0.00 0.00 76 1009.3
20260505122348 8 129 3.2 4.8 0.00 0.00 0.00 75 1009.3
20260505121843 9 129 1.6 4.8 0.00 0.00 0.00 75 1009.3
20260505121336 9 201 0.0 1.6 0.00 0.00 0.00 77 1009.4
20260505120830 9 202 0.0 3.2 0.00 0.00 0.00 77 1009.2
20260505120324 9 202 0.0 3.2 0.00 0.00 0.00 77 1009.1
20260505115820 9 202 0.0 1.6 0.00 0.00 0.00 77 1009.1
20260505115313 9 202 0.0 3.2 0.00 0.00 0.00 77 1009.1
20260505114806 9 202 0.0 3.2 0.00 0.00 0.00 76 1009.2
20260505114300 9 202 0.0 1.6 0.00 0.00 0.00 76 1009.1
20260505113754 9 202 0.0 3.2 0.00 0.00 0.00 75 1009.1
20260505113249 9 202 0.0 3.2 0.00 0.00 0.00 74 1009.2
20260505112742 9 202 0.0 0.0 0.00 0.00 0.00 74 1009.2
20260505112236 10 202 0.0 0.0 0.00 0.00 0.00 74 1009.2
20260505111731 10 202 0.0 1.6 0.00 0.00 0.00 74 1009.1
20260505111224 10 202 0.0 1.6 0.00 0.00 0.00 73 1009.0
20260505110721 10 202 0.0 3.2 0.00 0.00 0.00 73 1009.0
20260505110219 10 202 1.6 4.8 0.00 0.00 0.00 72 1008.9
20260505102212 10 191 0.0 0.0 0.00 0.00 0.00 72 1008.7
20260505101713 10 190 0.0 0.0 0.00 0.00 0.00 72 1008.7
20260505101448 11 191 0.0 0.0 0.00 0.00 0.00 72 1008.7
20260505101215 11 191 0.0 0.0 0.00 0.00 0.00 72 1008.7
20260505101009 11 191 0.0 0.0 0.00 0.00 0.00 71 1008.7
20260505100211 11 190 0.0 0.0 0.00 0.00 0.00 71 1008.7
20260505095709 11 190 0.0 0.0 0.00 0.00 0.00 71 1008.7
20260505095209 11 191 0.0 0.0 0.00 0.00 0.00 70 1008.7
20260505094711 11 191 0.0 0.0 0.00 0.00 0.00 70 1008.9
20260505094208 11 190 0.0 0.0 0.00 0.00 0.00 69 1008.7
20260505093943 11 190 0.0 0.0 0.00 0.00 0.00 69 1008.9
20260505093202 11 191 0.0 0.0 0.00 0.00 0.00 69 1008.9
20260505092658 11 190 0.0 0.0 0.00 0.00 0.00 68 1008.9
20260505092201 11 190 0.0 0.0 0.00 0.00 0.00 68 1008.7
20260505091658 11 190 0.0 0.0 0.00 0.00 0.00 68 1008.9
20260505091200 12 190 0.0 0.0 0.00 0.00 0.00 67 1008.9
20260505090658 12 190 0.0 0.0 0.00 0.00 0.00 67 1008.7
20260505090158 12 190 0.0 0.0 0.00 0.00 0.00 67 1008.7
20260505085658 12 190 0.0 0.0 0.00 0.00 0.00 67 1008.7
20260505085200 12 190 0.0 0.0 0.00 0.00 0.00 67 1008.7
20260505084658 12 191 0.0 0.0 0.00 0.00 0.00 67 1008.6
20260505084159 12 190 0.0 0.0 0.00 0.00 0.00 67 1008.7
20260505083655 12 190 1.6 4.8 0.00 0.00 0.00 66 1008.7
20260505083213 12 191 1.6 4.8 0.00 0.00 0.00 66 1008.6
20260505082155 12 187 1.6 4.8 0.00 0.00 0.00 65 1008.5
20260505081655 12 181 0.0 0.0 0.00 0.00 0.00 65 1008.5
20260505081154 12 181 0.0 0.0 0.00 0.00 0.00 65 1008.5
20260505080654 12 181 0.0 0.0 0.00 0.00 0.00 65 1008.6
20260505080154 12 181 0.0 0.0 0.00 0.00 0.00 65 1008.5
20260505075655 12 181 0.0 0.0 0.00 0.00 0.00 65 1008.5
20260505075148 12 181 0.0 0.0 0.00 0.00 0.00 64 1008.6
20260505074643 12 181 0.0 0.0 0.00 0.00 0.00 63 1008.5
20260505074135 13 181 0.0 0.0 0.00 0.00 0.00 63 1008.5
20260505073629 13 181 0.0 0.0 0.00 0.00 0.00 63 1008.5
20260505073406 13 181 0.0 0.0 0.00 0.00 0.00 62 1008.5
20260505072624 13 181 0.0 0.0 0.00 0.00 0.00 62 1008.4
20260505072111 13 181 0.0 0.0 0.00 0.00 0.00 62 1008.5
20260505071606 13 181 1.6 4.8 0.00 0.00 0.00 61 1008.4
20260505071100 13 181 1.6 4.8 0.00 0.00 0.00 61 1008.4
20260505070553 13 181 1.6 4.8 0.00 0.00 0.00 61 1008.3
20260505070046 13 181 1.6 4.8 0.00 0.00 0.00 60 1008.3
20260505065542 13 180 3.2 6.4 0.00 0.00 0.00 60 1008.3
20260505065035 13 177 3.2 6.4 0.00 0.00 0.00 59 1008.3
20260505064811 13 163 1.6 6.4 0.00 0.00 0.00 59 1008.2
20260505064021 13 146 1.6 3.2 0.00 0.00 0.00 58 1008.2
20260505063545 14 146 0.0 3.2 0.00 0.00 0.00 57 1008.3
20260505063531 13 146 1.6 3.2 0.00 0.00 0.00 58 1008.3
20260505062503 14 146 0.0 1.6 0.00 0.00 0.00 55 1008.3
20260505061958 14 146 0.0 3.2 0.00 0.00 0.00 54 1008.3
20260505061453 14 146 1.6 6.4 0.00 0.00 0.00 54 1008.4
20260505060946 14 145 1.6 6.4 0.00 0.00 0.00 56 1008.4
20260505060439 14 263 1.6 4.8 0.00 0.00 0.00 55 1008.3
20260505055933 15 303 1.6 4.8 0.00 0.00 0.00 54 1008.2
20260505055428 15 5 0.0 3.2 0.00 0.00 0.00 53 1008.2
20260505054921 15 5 0.0 0.0 0.00 0.00 0.00 53 1008.2
20260505054645 15 5 0.0 1.6 0.00 0.00 0.00 52 1008.2
20260505053909 15 5 0.0 3.2 0.00 0.00 0.00 50 1008.2
20260505053403 15 5 1.6 3.2 0.00 0.00 0.00 45 1008.2
20260505053144 15 5 0.0 3.2 0.00 0.00 0.00 42 1008.3
20260505052351 16 9 0.0 1.6 0.00 0.00 0.00 41 1008.2
20260505052128 16 9 0.0 1.6 0.00 0.00 0.00 40 1008.3
20260505051340 16 9 0.0 1.6 0.00 0.00 0.00 39 1008.2
20260505050835 16 9 0.0 1.6 0.00 0.00 0.00 37 1008.1
20260505050604 17 9 0.0 3.2 0.00 0.00 0.00 37 1008.1
20260505041231 18 307 1.6 11.3 0.00 0.00 0.00 33 1007.4
20260505040721 18 348 1.6 3.2 0.00 0.00 0.00 34 1007.4
20260505040219 18 348 1.6 3.2 0.00 0.00 0.00 33 1007.2
20260505035709 18 348 0.0 3.2 0.00 0.00 0.00 32 1007.1
20260505035203 19 348 1.6 6.4 0.00 0.00 0.00 32 1007.0
20260505034658 20 348 1.6 6.4 0.00 0.00 0.00 31 1006.9
20260505034151 20 348 1.6 6.4 0.00 0.00 0.00 30 1006.8
20260505033645 20 342 3.2 9.7 0.00 0.00 0.00 30 1006.7
20260505033139 20 355 4.8 12.9 0.00 0.00 0.00 29 1006.6
20260505032637 21 342 4.8 14.5 0.00 0.00 0.00 29 1006.6
20260505032137 21 11 6.4 16.1 0.00 0.00 0.00 28 1006.6
20260505031638 21 355 8.0 16.1 0.00 0.00 0.00 28 1006.6
20260505031137 21 334 9.7 20.9 0.00 0.00 0.00 27 1006.5
20260505030637 21 330 11.3 22.5 0.00 0.00 0.00 27 1006.4
20260505030421 22 341 11.3 22.5 0.00 0.00 0.00 26 1006.2
20260505025640 22 342 11.3 20.9 0.00 0.00 0.00 26 1006.1
20260505025137 22 340 11.3 20.9 0.00 0.00 0.00 26 1006.1
20260505024637 22 300 12.9 24.1 0.00 0.00 0.00 25 1006.1
20260505024138 22 338 12.9 24.1 0.00 0.00 0.00 24 1006.0
20260505023633 23 350 12.9 27.4 0.00 0.00 0.00 24 1005.9
20260505023136 23 317 12.9 27.4 0.00 0.00 0.00 23 1006.0
20260505022927 23 339 11.3 24.1 0.00 0.00 0.00 23 1005.9
20260505022134 23 333 11.3 20.9 0.00 0.00 0.00 22 1005.9
20260505021633 24 10 11.3 24.1 0.00 0.00 0.00 22 1005.8
20260505021422 24 329 12.9 29.0 0.00 0.00 0.00 22 1005.8
20260505020634 24 311 12.9 29.0 0.00 0.00 0.00 22 1005.8
20260505020141 24 336 12.9 25.7 0.00 0.00 0.00 22 1005.8
20260505015919 24 342 12.9 25.7 0.00 0.00 0.00 23 1005.7
20260505015136 25 355 14.5 25.7 0.00 0.00 0.00 23 1005.8
20260505014910 25 329 12.9 25.7 0.00 0.00 0.00 22 1005.7
20260505014131 25 340 14.5 24.1 0.00 0.00 0.00 23 1005.7
20260505013851 25 347 14.5 27.4 0.00 0.00 0.00 23 1005.8
20260505013631 25 347 14.5 27.4 0.00 0.00 0.00 23 1005.8
20260505013407 25 322 11.3 27.4 0.00 0.00 0.00 23 1005.7
20260505012631 26 35 9.7 19.3 0.00 0.00 0.00 24 1005.8
20260505012131 26 334 11.3 27.4 0.00 0.00 0.00 24 1005.7
20260505011631 26 319 12.9 27.4 0.00 0.00 0.00 24 1005.8
20260505011132 26 344 9.7 25.7 0.00 0.00 0.00 24 1005.9
20260505010632 26 337 9.7 25.7 0.00 0.00 0.00 24 1005.8
20260505010131 26 300 11.3 25.7 0.00 0.00 0.00 24 1005.8
20260505005640 26 355 9.7 20.9 0.00 0.00 0.00 25 1005.9
20260505005141 26 355 11.3 25.7 0.00 0.00 0.00 25 1006.0
20260505004639 26 323 12.9 25.7 0.00 0.00 0.00 24 1005.8
20260505004422 26 342 11.3 20.9 0.00 0.00 0.00 24 1005.9
20260505003635 26 333 11.3 20.9 0.00 0.00 0.00 24 1005.9
20260505003129 27 323 12.9 25.7 0.00 0.00 0.00 24 1006.0
20260505002628 27 5 12.9 25.7 0.00 0.00 0.00 25 1005.9
20260505002353 27 13 11.3 29.0 0.00 0.00 0.00 25 1005.9
20260505001845 27 347 11.3 29.0 0.00 0.00 0.00 24 1005.9
20260505001103 27 296 11.3 24.1 0.00 0.00 0.00 24 1005.8
20260505000559 27 18 11.3 22.5 0.00 0.00 0.00 24 1005.9
20260505000053 27 290 12.9 29.0 0.00 0.00 0.00 24 1005.8
20260504235545 27 288 12.9 29.0 0.00 0.00 0.00 24 1005.9
20260504235040 27 273 11.3 25.7 0.00 0.00 0.00 23 1005.8
20260504234532 27 0 11.3 24.1 0.00 0.00 0.00 23 1005.9
20260504234030 27 5 11.3 24.1 0.00 0.00 0.00 23 1005.8
20260504233800 27 315 12.9 24.1 0.00 0.00 0.00 23 1005.8
20260504233015 27 309 11.3 24.1 0.00 0.00 0.00 23 1005.8
20260504232511 27 291 9.7 25.7 0.00 0.00 0.00 24 1005.8
20260504232241 27 314 12.9 25.7 0.00 0.00 0.00 23 1005.9
20260504231501 27 296 12.9 29.0 0.00 0.00 0.00 23 1005.9
20260504230954 27 5 11.3 29.0 0.00 0.00 0.00 23 1005.9
20260504230711 27 325 11.3 27.4 0.00 0.00 0.00 22 1005.9
20260504225942 27 351 11.3 27.4 0.00 0.00 0.00 23 1006.0
20260504225435 27 355 9.7 25.7 0.00 0.00 0.00 22 1006.0
20260504224927 27 30 11.3 20.9 0.00 0.00 0.00 22 1006.2
20260504224429 27 355 11.3 32.2 0.00 0.00 0.00 23 1006.2
20260504223915 28 9 9.7 32.2 0.00 0.00 0.00 22 1006.1
20260504223414 28 59 9.7 19.3 0.00 0.00 0.00 22 1006.2
20260504223017 28 20 9.7 30.6 0.00 0.00 0.00 22 1006.5
20260504223003 28 320 11.3 30.6 0.00 0.00 0.00 21 1006.2
20260504221856 28 311 9.7 27.4 0.00 0.00 0.00 22 1006.4
20260504221624 28 334 9.7 27.4 0.00 0.00 0.00 23 1006.5
20260504221131 27 48 9.7 24.1 0.00 0.00 0.00 25 1006.6
20260504220555 27 44 8.0 22.5 0.00 0.00 0.00 24 1006.6
20260504215834 27 327 8.0 22.5 0.00 0.00 0.00 24 1006.5
20260504215609 27 24 9.7 22.5 0.00 0.00 0.00 24 1006.6
20260504214838 27 316 8.0 24.1 0.00 0.00 0.00 24 1006.6
20260504214334 28 36 9.7 24.1 0.00 0.00 0.00 24 1006.7
20260504213834 28 0 8.0 20.9 0.00 0.00 0.00 24 1006.6
20260504213334 28 58 6.4 17.7 0.00 0.00 0.00 25 1006.7
20260504212834 27 76 6.4 17.7 0.00 0.00 0.00 25 1006.9
20260504212334 27 53 8.0 19.3 0.00 0.00 0.00 25 1006.9
20260504211834 27 0 8.0 19.3 0.00 0.00 0.00 25 1007.0
20260504211609 27 60 8.0 20.9 0.00 0.00 0.00 26 1006.9
20260504210833 27 355 8.0 20.9 0.00 0.00 0.00 25 1007.0
20260504210334 27 31 8.0 17.7 0.00 0.00 0.00 26 1007.1
20260504205831 27 40 6.4 17.7 0.00 0.00 0.00 25 1007.1
20260504205330 27 40 4.8 16.1 0.00 0.00 0.00 25 1007.2
20260504204831 27 32 4.8 16.1 0.00 0.00 0.00 26 1007.3
20260504204330 27 355 6.4 19.3 0.00 0.00 0.00 25 1007.2
20260504203830 27 14 8.0 19.3 0.00 0.00 0.00 24 1007.4
20260504203331 27 32 6.4 19.3 0.00 0.00 0.00 24 1007.4
20260504202830 27 23 6.4 19.3 0.00 0.00 0.00 24 1007.3
20260504202335 27 74 6.4 22.5 0.00 0.00 0.00 24 1007.4
20260504202101 27 84 8.0 22.5 0.00 0.00 0.00 25 1007.5
20260504201411 26 345 6.4 14.5 0.00 0.00 0.00 24 1007.5
20260504201357 27 355 6.4 19.3 0.00 0.00 0.00 24 1007.5
20260504200329 26 32 8.0 19.3 0.00 0.00 0.00 24 1007.5
20260504195828 26 34 8.0 19.3 0.00 0.00 0.00 24 1007.7
20260504195328 26 38 8.0 17.7 0.00 0.00 0.00 24 1007.7
20260504194826 26 340 8.0 17.7 0.00 0.00 0.00 23 1007.7
20260504194612 26 34 8.0 19.3 0.00 0.00 0.00 25 1007.5
20260504193834 26 33 6.4 19.3 0.00 0.00 0.00 25 1007.7
20260504193601 26 38 4.8 16.1 0.00 0.00 0.00 27 1007.8
20260504192826 26 51 6.4 16.1 0.00 0.00 0.00 26 1007.8
20260504192325 26 344 8.0 19.3 0.00 0.00 0.00 26 1007.9
20260504191819 26 45 6.4 19.3 0.00 0.00 0.00 26 1007.8
20260504191316 26 15 6.4 24.1 0.00 0.00 0.00 27 1007.8
20260504190807 26 355 6.4 24.1 0.00 0.00 0.00 27 1007.8
20260504190303 26 53 8.0 19.3 0.00 0.00 0.00 28 1007.9
20260504190021 25 336 8.0 19.3 0.00 0.00 0.00 31 1008.0
20260504185256 25 330 8.0 29.0 0.00 0.00 0.00 32 1007.9
20260504184743 25 330 8.0 29.0 0.00 0.00 0.00 34 1007.9
20260504184240 25 333 6.4 17.7 0.00 0.00 0.00 32 1007.9
20260504183732 25 49 6.4 20.9 0.00 0.00 0.00 33 1008.1
20260504183226 25 45 8.0 20.9 0.00 0.00 0.00 35 1008.1
20260504182719 25 24 8.0 24.1 0.00 0.00 0.00 33 1008.2
20260504182220 24 45 8.0 22.5 0.00 0.00 0.00 34 1008.2
20260504182214 25 351 8.0 24.1 0.00 0.00 0.00 34 1008.2
20260504181200 24 36 8.0 22.5 0.00 0.00 0.00 33 1008.3
20260504180656 24 36 8.0 19.3 0.00 0.00 0.00 35 1008.4
20260504180422 23 337 8.0 17.7 0.00 0.00 0.00 33 1008.4
20260504175644 23 355 8.0 19.3 0.00 0.00 0.00 35 1008.5
20260504175137 24 32 8.0 19.3 0.00 0.00 0.00 34 1008.5
20260504174631 23 340 6.4 14.5 0.00 0.00 0.00 35 1008.4
20260504174400 23 46 6.4 16.1 0.00 0.00 0.00 36 1008.4
20260504173620 23 290 4.8 14.5 0.00 0.00 0.00 36 1008.3
20260504173114 23 337 4.8 14.5 0.00 0.00 0.00 35 1008.4
20260504172607 23 22 4.8 14.5 0.00 0.00 0.00 35 1008.4
20260504172100 23 36 4.8 11.3 0.00 0.00 0.00 34 1008.5
20260504171815 23 92 3.2 11.3 0.00 0.00 0.00 36 1008.4
20260504171311 23 131 1.6 11.3 0.00 0.00 0.00 35 1008.4
20260504170547 22 56 1.6 6.4 0.00 0.00 0.00 36 1008.5
20260504170110 22 61 1.6 6.4 0.00 0.00 0.00 38 1008.5
20260504170104 22 59 3.2 6.4 0.00 0.00 0.00 36 1008.5